Regional Weather Roundup
Issued by NWS Sioux Falls, SD

Home | Current Version | Previous Version | Text Only | Print | Product List | Glossary Off
Versions: 1 2 3 4 5 6 7 8 9 10 11 12 13 14 15 16 17 18 19 20 21 22 23 24 25 26 27 28 29 30 31 32 33 34 35 36 37 38 39 40 41 42 43 44 45 46 47 48 49 50

000
ASUS43 KFSD 211810
RWRFSD

WEATHER ROUNDUP FOR SE SOUTH DAKOTA/SW MINNESOTA/NW IOWA
NATIONAL WEATHER SERVICE SIOUX FALLS SD
100 PM CDT SAT APR 21 2018

NOTE: "FAIR" INDICATES FEW OR NO CLOUDS BELOW 12,000 FEET WITH NO
SIGNIFICANT WEATHER AND OR OBSTRUCTIONS TO VISIBILITY.


SDZ038>040-050-052>070-211900-
SOUTHEAST SOUTH DAKOTA

CITY           SKY/WX    TMP DP  RH WIND       PRES   REMARKS
BROOKINGS      CLOUDY    48  34  58 E8        30.36S
CHAMBERLAIN    CLOUDY    47  43  88 CALM      30.33R
6HR MIN TEMP:  39; 6HR MAX TEMP:  47;

HURON          CLOUDY    44  33  65 S8        30.34F
6HR MIN TEMP:  38; 6HR MAX TEMP:  44;

MADISON        MOCLDY    45  45 100 E8        30.35S
MITCHELL       CLOUDY    46  37  71 CALM      30.35S
6HR MIN TEMP:  37; 6HR MAX TEMP:  46;

SIOUX FALLS    CLOUDY    47  34  60 E6        30.34S
6HR MIN TEMP:  38; 6HR MAX TEMP:  48; 6HR PCP: TRACE;

WINNER         LGT RAIN  43  38  82 SE5       30.32R
YANKTON        PTSUNNY   48  35  60 E6        30.33R
$$

MNZ071-072-080-081-089-090-097-098-211900-
SOUTHWEST MINNESOTA

CITY           SKY/WX    TMP DP  RH WIND       PRES   REMARKS
JACKSON        CLOUDY    37  32  81 NE7       30.38S
LUVERNE        CLOUDY    46  34  61 E9        30.35F
MARSHALL       CLOUDY    45  32  60 SE6       30.39S
6HR MIN TEMP:  34; 6HR MAX TEMP:  45;

MONTEVIDEO     CLOUDY    55  36  47 SW5       30.39S
PIPESTONE      CLOUDY   N/A N/A N/A E8        30.35F
REDWOOD FALLS  MOSUNNY   49  32  52 SE5       30.38F
TRACY          CLOUDY    46  32  59 SE3       30.38S
WINDOM         PTSUNNY   45  21  39 CALM      30.38S
WORTHINGTON    CLOUDY    42  35  76 NE8       30.37F
$$

IAZ001>003-012>014-020>022-031-032-NEZ013-014-SDZ071-211900-
NORTHWEST IOWA

CITY           SKY/WX    TMP DP  RH WIND       PRES   REMARKS
CHEROKEE       CLOUDY    46  36  67 E9        30.33F
DENISON        CLOUDY    54  27  35 E10G16    30.32F
ESTHERVILLE    CLOUDY    42  31  64 NE3       30.36F
LE MARS        CLOUDY    50  34  53 E9        30.32F
ORANGE CITY    MOSUNNY   50  36  57 E7        30.33F
SHELDON        CLOUDY    52  37  58 E12       30.33S
SIOUX CITY     CLOUDY    49  33  54 E7        30.31F
6HR MIN TEMP:  42; 6HR MAX TEMP:  49;

SPENCER        CLOUDY    45  34  65 E8        30.36F
6HR MIN TEMP:  37; 6HR MAX TEMP:  45;

STORM LAKE     CLOUDY    45  37  76 NE13      30.33F
$$

ABBREVIATIONS USED IN REMARKS
   TC - TEMPERATURE IN CELSIUS
  WCI - WIND CHILL INDEX
   HX - HEAT INDEX
  VSB - VISIBILITY





USA.gov is the U.S. government's official web portal to all federal, state and local government web resources and services.